TimePDT,TemperatureF,Dew PointF,Humidity,Sea Level PressureIn,VisibilityMPH,Wind Direction,Wind SpeedMPH,Gust SpeedMPH,PrecipitationIn,Events,Conditions,WindDirDegrees,DateUTC
12:15 AM,48.2,46.4,93,29.96,5.0,Calm,Calm,-,0.01,Rain,Light Rain,0,2013-05-21 07:15:00
12:35 AM,48.2,46.4,93,29.96,5.0,Calm,Calm,-,0.03,Rain,Light Rain,0,2013-05-21 07:35:00
12:55 AM,48.2,46.4,93,29.95,3.0,NNE,4.6,-,0.07,Rain,Heavy Rain,20,2013-05-21 07:55:00
1:15 AM,46.4,44.6,93,29.95,5.0,Calm,Calm,-,N/A,Rain,Heavy Rain,0,2013-05-21 08:15:00
1:35 AM,46.4,44.6,93,29.94,4.0,NNE,4.6,-,0.02,Rain,Rain,20,2013-05-21 08:35:00
1:55 AM,46.4,44.6,93,29.93,5.0,North,3.5,-,0.02,Rain,Light Rain,360,2013-05-21 08:55:00
2:15 AM,46.4,44.6,93,29.94,5.0,Calm,Calm,-,N/A,Rain,Light Rain,0,2013-05-21 09:15:00
2:35 AM,46.4,44.6,93,29.93,5.0,Calm,Calm,-,N/A,Rain,Light Rain,0,2013-05-21 09:35:00
2:55 AM,46.4,44.6,93,29.93,5.0,ESE,3.5,-,N/A,Rain,Light Rain,110,2013-05-21 09:55:00
3:15 AM,46.4,44.6,93,29.92,10.0,Calm,Calm,-,0.01,,Overcast,0,2013-05-21 10:15:00
3:35 AM,46.4,44.6,93,29.92,7.0,Calm,Calm,-,0.02,Rain,Light Rain,0,2013-05-21 10:35:00
3:55 AM,46.4,44.6,93,29.91,6.0,Calm,Calm,-,0.02,Rain,Light Rain,0,2013-05-21 10:55:00
4:15 AM,46.4,44.6,93,29.91,7.0,Calm,Calm,-,0.01,,Overcast,0,2013-05-21 11:15:00
4:35 AM,46.4,44.6,93,29.91,8.0,Calm,Calm,-,0.01,,Overcast,0,2013-05-21 11:35:00
4:55 AM,46.4,46.4,100,29.91,5.0,South,5.8,-,0.01,,Overcast,180,2013-05-21 11:55:00
5:15 AM,46.4,44.6,93,29.91,6.0,SW,4.6,-,N/A,,Overcast,220,2013-05-21 12:15:00
5:35 AM,46.4,44.6,93,29.90,5.0,South,4.6,-,N/A,,Overcast,180,2013-05-21 12:35:00
5:55 AM,46.4,46.4,100,29.90,5.0,South,5.8,-,N/A,,Overcast,190,2013-05-21 12:55:00
6:15 AM,46.4,44.6,93,29.90,8.0,SSW,5.8,-,N/A,,Overcast,200,2013-05-21 13:15:00
6:35 AM,46.4,44.6,93,29.89,4.0,South,4.6,-,N/A,,Overcast,170,2013-05-21 13:35:00
6:55 AM,46.4,44.6,93,29.89,5.0,South,5.8,-,N/A,,Overcast,180,2013-05-21 13:55:00
7:15 AM,46.4,46.4,100,29.89,5.0,South,5.8,-,N/A,,Overcast,180,2013-05-21 14:15:00
7:35 AM,46.4,44.6,93,29.88,5.0,South,5.8,-,N/A,,Overcast,170,2013-05-21 14:35:00
7:55 AM,48.2,46.4,93,29.88,2.5,South,4.6,-,N/A,,Mostly Cloudy,190,2013-05-21 14:55:00
8:15 AM,48.2,46.4,93,29.88,5.0,SSE,5.8,-,N/A,,Mostly Cloudy,160,2013-05-21 15:15:00
8:35 AM,48.2,44.6,87,29.87,9.0,South,6.9,-,N/A,,Overcast,180,2013-05-21 15:35:00
8:55 AM,48.2,46.4,93,29.87,1.8,South,5.8,-,N/A,,Overcast,180,2013-05-21 15:55:00
9:15 AM,48.2,46.4,93,29.86,9.0,South,5.8,-,N/A,,Mostly Cloudy,170,2013-05-21 16:15:00
9:35 AM,48.2,46.4,93,29.86,5.0,SSE,4.6,-,N/A,,Overcast,160,2013-05-21 16:35:00
9:55 AM,48.2,46.4,93,29.86,5.0,South,4.6,-,N/A,,Mostly Cloudy,170,2013-05-21 16:55:00
10:15 AM,50.0,46.4,87,29.85,8.0,SSW,5.8,-,N/A,,Mostly Cloudy,210,2013-05-21 17:15:00
10:35 AM,50.0,46.4,87,29.85,5.0,SSW,6.9,-,N/A,,Haze,200,2013-05-21 17:35:00
10:55 AM,50.0,46.4,87,29.85,8.0,SSW,4.6,-,N/A,Rain,Light Rain,210,2013-05-21 17:55:00
11:15 AM,50.0,46.4,87,29.84,10.0,SSW,4.6,-,N/A,,Mostly Cloudy,210,2013-05-21 18:15:00
11:35 AM,50.0,46.4,87,29.84,3.0,SW,3.5,-,N/A,Rain,Light Rain,220,2013-05-21 18:35:00
11:55 AM,50.0,46.4,87,29.85,2.5,WSW,4.6,-,N/A,Rain,Rain,240,2013-05-21 18:55:00
12:15 PM,48.2,46.4,93,29.85,9.0,SW,4.6,-,N/A,Rain,Light Rain,230,2013-05-21 19:15:00
12:35 PM,51.8,46.4,82,29.84,5.0,SSW,4.6,-,0.01,,Haze,210,2013-05-21 19:35:00
12:55 PM,50.0,46.4,87,29.85,5.0,SW,4.6,-,0.04,,Scattered Clouds,220,2013-05-21 19:55:00
1:15 PM,51.8,44.6,76,29.85,10.0,WNW,5.8,-,N/A,,Mostly Cloudy,290,2013-05-21 20:15:00
1:35 PM,53.6,44.6,72,29.85,10.0,West,6.9,-,N/A,,Mostly Cloudy,280,2013-05-21 20:35:00
1:55 PM,55.4,44.6,67,29.85,10.0,West,9.2,16.1,N/A,,Mostly Cloudy,280,2013-05-21 20:55:00
2:15 PM,53.6,46.4,77,29.86,4.0,WSW,6.9,-,N/A,,Haze,250,2013-05-21 21:15:00
2:35 PM,53.6,46.4,77,29.86,7.0,WNW,5.8,-,N/A,Rain,Light Rain,300,2013-05-21 21:35:00
2:55 PM,55.4,44.6,67,29.86,5.0,NW,9.2,-,N/A,,Haze,320,2013-05-21 21:55:00
3:15 PM,55.4,44.6,67,29.86,10.0,WNW,8.1,-,N/A,,Mostly Cloudy,290,2013-05-21 22:15:00
3:35 PM,57.2,44.6,63,29.86,10.0,WSW,9.2,-,N/A,,Mostly Cloudy,250,2013-05-21 22:35:00
3:55 PM,53.6,44.6,72,29.86,5.0,West,9.2,17.3,N/A,,Haze,260,2013-05-21 22:55:00
4:15 PM,55.4,42.8,63,29.86,5.0,West,11.5,18.4,N/A,,Haze,260,2013-05-21 23:15:00
4:35 PM,55.4,41.0,58,29.86,5.0,WNW,8.1,18.4,N/A,,Haze,300,2013-05-21 23:35:00
4:55 PM,53.6,41.0,62,29.87,5.0,West,6.9,-,N/A,,Haze,280,2013-05-21 23:55:00
5:15 PM,53.6,42.8,67,29.88,5.0,WNW,6.9,-,N/A,,Haze,290,2013-05-22 00:15:00
5:35 PM,51.8,41.0,67,29.88,5.0,West,8.1,-,N/A,,Haze,260,2013-05-22 00:35:00
5:55 PM,51.8,42.8,71,29.89,5.0,West,6.9,-,N/A,,Haze,270,2013-05-22 00:55:00
6:15 PM,51.8,42.8,71,29.89,5.0,West,5.8,-,N/A,,Haze,270,2013-05-22 01:15:00
6:35 PM,51.8,41.0,67,29.89,5.0,WSW,3.5,-,N/A,,Haze,250,2013-05-22 01:35:00
6:55 PM,50.0,41.0,71,29.90,6.0,WSW,8.1,-,N/A,,Haze,250,2013-05-22 01:55:00
7:15 PM,50.0,42.8,76,29.91,6.0,WSW,6.9,-,N/A,,Haze,240,2013-05-22 02:15:00
7:35 PM,48.2,42.8,82,29.91,5.0,SW,4.6,-,N/A,,Haze,230,2013-05-22 02:35:00
7:55 PM,48.2,41.0,76,29.91,5.0,SW,5.8,-,N/A,,Haze,230,2013-05-22 02:55:00
8:15 PM,48.2,41.0,76,29.92,5.0,SW,4.6,-,N/A,,Haze,230,2013-05-22 03:15:00
8:35 PM,48.2,41.0,76,29.92,10.0,SSW,6.9,-,N/A,,Overcast,210,2013-05-22 03:35:00
8:55 PM,48.2,41.0,76,29.93,10.0,SW,5.8,-,N/A,,Mostly Cloudy,220,2013-05-22 03:55:00
9:15 PM,46.4,41.0,81,29.94,10.0,SW,6.9,-,N/A,,Overcast,220,2013-05-22 04:15:00
9:35 PM,46.4,41.0,81,29.94,10.0,SSW,5.8,-,N/A,,Overcast,210,2013-05-22 04:35:00
9:55 PM,46.4,41.0,81,29.94,10.0,SSW,5.8,-,N/A,,Mostly Cloudy,200,2013-05-22 04:55:00
10:15 PM,46.4,41.0,81,29.94,10.0,SSW,5.8,-,N/A,,Overcast,210,2013-05-22 05:15:00
10:35 PM,46.4,41.0,81,29.93,10.0,SSW,3.5,-,N/A,,Overcast,210,2013-05-22 05:35:00
10:55 PM,46.4,41.0,81,29.94,10.0,South,4.6,-,N/A,,Overcast,190,2013-05-22 05:55:00
11:15 PM,46.4,41.0,81,29.94,10.0,SSW,5.8,-,N/A,,Overcast,200,2013-05-22 06:15:00
11:35 PM,46.4,41.0,81,29.94,10.0,SSW,4.6,-,N/A,,Overcast,200,2013-05-22 06:35:00
11:55 PM,46.4,41.0,81,29.94,10.0,SSW,4.6,-,N/A,,Overcast,210,2013-05-22 06:55:00